Naples, FL

2:24 AM EDT on May 27, 2018 (GMT -0400)
Naples Municipal

Weather History for KAPF - November, 2014

Change the Weather History Date:

Friday, November 21, 2014

  Actual Average Record
Temperature  
Mean Temperature 66 °F 71 °F  
Max Temperature 71 °F 80 °F 90 °F (1948)
Min Temperature 61 °F 62 °F 41 °F (1968)
Degree Days  
Heating Degree Days 0 1  
Month to date heating degree days 17 2  
Since 1 July heating degree days 17 3  
Cooling Degree Days 1 6  
Month to date cooling degree days 82 172  
Year to date cooling degree days 3890 3767  
Growing Degree Days 16 (Base 50)    
Moisture  
Dew Point 61 °F    
Average Humidity 83    
Maximum Humidity 93    
Minimum Humidity 72    
Precipitation  
Precipitation T in 0.04 in 1.59 in (2011)
Month to date precipitation 0.66 1.56  
Year to date precipitation 50.02 49.96  
Snow  
Snow 0.00 in - - ()
Month to date snowfall 0.0  
Since 1 July snowfall 0.0  
Since 1 September snowfall 0.0  
Snow Depth 0.00 in    
Sea Level Pressure  
Sea Level Pressure 30.15 in    
Wind  
Wind Speed 15 mph (NE)    
Max Wind Speed 25 mph    
Max Gust Speed 33 mph    
Visibility 10 miles    
Events Rain    
T = Trace of Precipitation, MM = Missing Value Source: NWS Daily Summary

Daily Weather History Graph

Daily Weather History Graph

Search for Another Location

Airport or City:

Astronomy

Nov. 21, 2014 Rise Set
Actual Time 6:50 AM EST 5:35 PM EST
Civil Twilight 6:25 AM EST 6:00 PM EST
Nautical Twilight 5:57 AM EST 6:28 PM EST
Astronomical Twilight 5:29 AM EST 6:56 PM EST
Moon 5:51 AM EST (11/21) 5:13 PM EST (11/21)
Length of Visible Light 11h 35m
Length of Day
10h 45m
Waning Crescent, 1% of the Moon is Illuminated
Nov 21
Waning Crescent
Nov 22
New
Nov 29
First Quarter
Dec 6
Full
Dec 14
Last Quarter

Hourly Weather History & Observations

Time (EST) Temp. Dew Point Humidity Pressure Visibility Wind Dir Wind Speed Gust Speed Precip Events Conditions
12:53 AM 62.1 °F 54.0 °F 75% 30.13 in 10.0 mi NE 10.4 mph - N/A   Mostly Cloudy
1:53 AM 63.0 °F 54.0 °F 72% 30.12 in 10.0 mi NE 9.2 mph - N/A   Overcast
2:53 AM 63.0 °F 55.0 °F 75% 30.12 in 10.0 mi NE 11.5 mph - N/A   Overcast
3:53 AM 63.0 °F 55.0 °F 75% 30.12 in 10.0 mi NE 9.2 mph - N/A   Overcast
4:53 AM 63.0 °F 55.0 °F 75% 30.12 in 10.0 mi ENE 11.5 mph - N/A   Overcast
5:53 AM 62.1 °F 57.0 °F 84% 30.13 in 7.0 mi NE 9.2 mph - 0.00 in Rain Light Rain
6:53 AM 62.1 °F 57.9 °F 86% 30.15 in 8.0 mi NNE 8.1 mph - 0.00 in   Overcast
7:53 AM 62.1 °F 57.9 °F 86% 30.17 in 10.0 mi NE 9.2 mph - 0.00 in   Overcast
8:53 AM 63.0 °F 57.9 °F 84% 30.19 in 10.0 mi NNE 13.8 mph - N/A   Overcast
9:53 AM 66.9 °F 60.1 °F 79% 30.20 in 10.0 mi NE 16.1 mph - N/A   Overcast
10:53 AM 69.1 °F 61.0 °F 75% 30.18 in 10.0 mi NE 16.1 mph 23.0 mph N/A   Overcast
11:53 AM 69.1 °F 62.1 °F 78% 30.17 in 10.0 mi NE 17.3 mph 24.2 mph N/A   Overcast
12:53 PM 70.0 °F 63.0 °F 78% 30.14 in 10.0 mi ENE 15.0 mph - N/A   Overcast
1:53 PM 71.1 °F 63.0 °F 75% 30.12 in 10.0 mi ENE 18.4 mph 27.6 mph N/A   Overcast
2:53 PM 69.1 °F 64.9 °F 87% 30.12 in 10.0 mi ENE 19.6 mph 29.9 mph N/A   Overcast
3:53 PM 71.1 °F 63.0 °F 75% 30.12 in 10.0 mi ENE 24.2 mph 28.8 mph N/A   Mostly Cloudy
4:53 PM 69.1 °F 63.0 °F 81% 30.13 in 10.0 mi NE 18.4 mph - N/A   Overcast
5:53 PM 69.1 °F 63.0 °F 81% 30.14 in 10.0 mi NE 18.4 mph - N/A   Overcast
6:51 PM 69.8 °F 64.4 °F 83% 30.15 in 10.0 mi ENE 17.3 mph 24.2 mph N/A   Overcast
6:53 PM 69.1 °F 64.0 °F 84% 30.15 in 10.0 mi ENE 17.3 mph - N/A   Overcast
7:32 PM 68.0 °F 64.0 °F 87% 30.16 in 10.0 mi NE 17.3 mph 24.2 mph N/A   Overcast
7:53 PM 68.0 °F 64.0 °F 87% 30.16 in 10.0 mi NE 17.3 mph 26.5 mph N/A   Overcast
8:08 PM 68.0 °F 64.0 °F 87% 30.16 in 10.0 mi NE 16.1 mph - N/A   Overcast
8:53 PM 68.0 °F 64.9 °F 90% 30.17 in 10.0 mi ENE 16.1 mph 23.0 mph N/A   Overcast
9:06 PM 68.0 °F 64.9 °F 90% 30.17 in 10.0 mi ENE 17.3 mph 25.3 mph N/A   Overcast
9:24 PM 68.0 °F 64.9 °F 90% 30.17 in 10.0 mi ENE 17.3 mph - N/A   Overcast
9:53 PM 68.0 °F 64.9 °F 90% 30.17 in 10.0 mi ENE 16.1 mph 25.3 mph N/A   Overcast
10:34 PM 68.0 °F 66.0 °F 93% 30.17 in 10.0 mi ENE 16.1 mph - N/A   Overcast
10:53 PM 68.0 °F 66.0 °F 93% 30.17 in 10.0 mi ENE 16.1 mph 24.2 mph N/A   Overcast
11:53 PM 69.1 °F 66.0 °F 90% 30.15 in 10.0 mi ENE 17.3 mph - N/A   Overcast